Preview of NWS' New Version of Forecast
This preview is not operational and should not be used for support decisions.

Regional Weather Roundup (RWR)

Issued by National Weather Service (NWS)

                            
000
ASUS43 KLSX 202107
RWRMO 

WEATHER SUMMARY FOR MISSOURI
NATIONAL WEATHER SERVICE SPRINGFIELD MO
400 PM CDT WED MAR 20 2019

NOTE: "FAIR" INDICATES FEW OR NO CLOUDS BELOW 12,000 FEET WITH NO
       SIGNIFICANT WEATHER AND/OR OBSTRUCTIONS TO VISIBILITY.
       CURRENT SKY AND/OR WEATHER CONDITIONS ARE NOT AVAILABLE FOR
       CHILLICOTHE AND FARMINGTON.

MOZ001>031-035>038-043-044-053-054-202200-
...NORTHERN AND WESTERN MISSOURI...
  
CITY           SKY/WX    TMP DP  RH WIND       PRES   REMARKS
KANSAS CTY INT FAIR      56  34  43 W14G25    30.05F                  
KANSAS C DTWN  FAIR      57  34  41 W12G25    30.05F                  
LEE'S SUMMIT   FAIR      56  35  45 W16G23    30.05F                  
ST JOSEPH      FAIR      56  36  47 W18       30.05F                  
CHILLICOTHE      N/A     52  38  58 W7G24     30.05F                  
     
$$
MOZ066>068-077>081-088>096-101>105-202200-
...SOUTHWEST MISSOURI...
  
CITY           SKY/WX    TMP DP  RH WIND       PRES   REMARKS
SPRINGFIELD    CLOUDY    50  36  58 W8G18     30.11F                  
JOPLIN         CLOUDY    53  39  59 NW16G22   30.13F                  
BRANSON        CLOUDY    48  37  66 MISG      30.12                   
               
$$
MOZ032>034-039>042-045>050-055>058-069>072-202200-
...CENTRAL MISSOURI...  
  
CITY           SKY/WX    TMP DP  RH WIND       PRES   REMARKS
COLUMBIA       PTSUNNY   54  39  57 W13       30.04F                  
JEFFERSON CITY CLOUDY    53  37  54 W13       30.05F                  
ROLLA          CLOUDY    48  36  63 W13       30.06S                  
SEDALIA        FAIR      54  38  54 W12G28    30.05F                  
WHITEMAN AFB   MOSUNNY   55  34  45 W14       30.05F                  
WARRENSBURG    FAIR      57  36  44 W12G18    30.05F                  
OSAGE BEACH    CLOUDY    51  38  60 W9        30.08F                  
               
$$
MOZ051-052-059>065-202200-
...EAST CENTRAL MISSOURI...
  
CITY           SKY/WX    TMP DP  RH WIND       PRES   REMARKS
ST LOUIS INTL  CLOUDY    52  38  58 W18G24    30.03R                  
SPIRIT OF STL  CLOUDY    53  39  59 W15G22    30.02S                  
ST CHARLES     CLOUDY    51  40  65 W14       30.02R                  
                   
$$
MOZ072>076-082>087-097>100-106>115-202200-
...SOUTH CENTRAL AND SOUTHEAST MISSOURI...
  
CITY           SKY/WX    TMP DP  RH WIND       PRES   REMARKS
CAPE GIRARDEAU LGT RAIN  49  43  80 S10       30.08F                  
FARMINGTON     LGT RAIN  50  43  77 W9        30.04S                  
POPLAR BLUFF   LGT RAIN  49  46  90 S9        30.09S                  
WEST PLAINS    CLOUDY    50  39  66 W9        30.09F                  
                                       
$$